Location: Brompton
(51.4000°N, 0.5333°E)
Time: 18:29:03
(UTC+00:00)

Cosmos 1606 - Pass Details

Date: 11 May 2021
Orbit: 503 x 525 km, 82.5° (Epoch: 16 June)

Event Time Altitude Azimuth Distance (km) Brightness Sun altitude
Rises 20:20:06 0° 207° (SSW) 2,600 6.1 -6.3°
Reaches altitude 10° 20:22:18 10° 215° (SW) 1,723 5.3 -6.6°
Maximum altitude 20:25:53 41° 286° (WNW) 759 4.2 -7.0°
Drops below altitude 10° 20:29:31 10° 358° (N) 1,749 6.1 -7.4°
Sets 20:31:46 0° 6° (N) 2,645 6.9 -7.7°
